ITY25C LIMJ-LFMN

Flight info

Callsign ITY25C
Flight time 0h 45m
Altitude 19000
Route LAGEN Q712 ENOBA Z185 BORDI
Aircraft A339/H-SADE1E2E3GHIJ3J5M1P2RWXY/LB2D1

Departure

Time 2026-04-25 07:55
Airport Genoa Cristoforo Colombo Airport (LIMJ)

Arrival

Time 2026-04-25 08:40
Airport Nice-Côte d'Azur Airport (LFMN)
Time Latitude Longitude Altitude Speed Heading
2026-04-25 07:37 44.41394 8.85098 26 ft 0 kts 16°
2026-04-25 07:44 44.41384 8.85094 26 ft 2 kts 16°
2026-04-25 07:44 44.41370 8.85088 26 ft 2 kts 11°
2026-04-25 07:44 44.41356 8.85084 24 ft 2 kts 349°
2026-04-25 07:45 44.41342 8.85087 24 ft 2 kts 322°
2026-04-25 07:45 44.41331 8.85099 25 ft 2 kts 292°
2026-04-25 07:45 44.41328 8.85105 25 ft 0 kts 282°
2026-04-25 07:49 44.41328 8.85106 23 ft 0 kts 281°
2026-04-25 07:49 44.41336 8.85047 25 ft 13 kts 281°
2026-04-25 07:50 44.41360 8.84851 30 ft 27 kts 276°
2026-04-25 07:50 44.41379 8.84653 27 ft 0 kts 277°
2026-04-25 07:50 44.41379 8.84643 28 ft 2 kts 277°
2026-04-25 07:50 44.41381 8.84623 29 ft 2 kts 277°
2026-04-25 07:51 44.41381 8.84624 29 ft 0 kts 277°
2026-04-25 07:52 44.41383 8.84608 30 ft 7 kts 278°
2026-04-25 07:52 44.41388 8.84507 26 ft 11 kts 258°
2026-04-25 07:52 44.41328 8.84417 27 ft 14 kts 213°
2026-04-25 07:53 44.41334 8.84308 29 ft 12 kts 287°
2026-04-25 07:53 44.41358 8.84183 30 ft 15 kts 290°
2026-04-25 07:53 44.41362 8.84029 28 ft 17 kts 270°
2026-04-25 07:53 44.41553 8.82422 21 ft 0 kts 140°
2026-04-25 07:54 44.41560 8.82412 21 ft 6 kts 130°
2026-04-25 07:54 44.41537 8.82457 22 ft 0 kts 107°
2026-04-25 07:54 44.41533 8.82473 21 ft 13 kts 107°
2026-04-25 07:54 44.41406 8.83060 28 ft 111 kts 103°
2026-04-25 07:55 44.41153 8.84457 224 ft 168 kts 104°
2026-04-25 07:55 44.40876 8.86008 1272 ft 167 kts 104°
2026-04-25 07:55 44.40596 8.87595 2339 ft 171 kts 105°
2026-04-25 07:55 44.40281 8.89274 3013 ft 185 kts 108°
2026-04-25 07:56 44.39690 8.90870 3806 ft 189 kts 138°
2026-04-25 07:56 44.38481 8.91625 4601 ft 201 kts 176°
2026-04-25 07:56 44.37051 8.91193 5128 ft 228 kts 211°
2026-04-25 07:56 44.35832 8.89707 5861 ft 238 kts 225°
2026-04-25 07:57 44.34640 8.88052 6602 ft 245 kts 230°
2026-04-25 07:57 44.33830 8.85891 7025 ft 263 kts 257°
2026-04-25 07:57 44.33562 8.83275 7429 ft 279 kts 268°
2026-04-25 07:57 44.33474 8.80548 8154 ft 282 kts 269°
2026-04-25 07:58 44.33396 8.77805 8945 ft 284 kts 268°
2026-04-25 07:58 44.33276 8.75031 9741 ft 287 kts 267°
2026-04-25 07:58 44.33113 8.72237 10461 ft 292 kts 265°
2026-04-25 07:58 44.32917 8.69303 10721 ft 314 kts 265°
2026-04-25 07:59 44.32694 8.66172 10940 ft 334 kts 264°
2026-04-25 07:59 44.32458 8.62919 11546 ft 338 kts 264°
2026-04-25 07:59 44.32220 8.59638 12265 ft 340 kts 263°
2026-04-25 07:59 44.31984 8.56382 12952 ft 343 kts 263°
2026-04-25 08:00 44.31742 8.53049 13618 ft 346 kts 263°
2026-04-25 08:00 44.31496 8.49648 14237 ft 350 kts 263°
2026-04-25 08:00 44.31251 8.46297 14827 ft 352 kts 263°
2026-04-25 08:00 44.31000 8.42887 15454 ft 355 kts 263°
2026-04-25 08:01 44.30740 8.39393 16064 ft 358 kts 263°
2026-04-25 08:01 44.30484 8.35970 16641 ft 361 kts 263°
2026-04-25 08:01 44.30077 8.32503 17225 ft 364 kts 254°
2026-04-25 08:01 44.29164 8.29201 17814 ft 367 kts 243°
2026-04-25 08:02 44.27809 8.26174 18392 ft 370 kts 233°
2026-04-25 08:02 44.26264 8.23287 18732 ft 374 kts 233°
2026-04-25 08:02 44.24727 8.20369 18832 ft 374 kts 234°
2026-04-25 08:02 44.23214 8.17403 18925 ft 375 kts 235°
2026-04-25 08:03 44.21726 8.14422 19025 ft 375 kts 236°
2026-04-25 08:03 44.20243 8.11420 19116 ft 381 kts 236°
2026-04-25 08:03 44.18714 8.08320 19122 ft 390 kts 236°
2026-04-25 08:03 44.17179 8.05214 19125 ft 388 kts 236°
2026-04-25 08:04 44.15641 8.02114 19127 ft 389 kts 236°
2026-04-25 08:04 44.14098 7.99014 19124 ft 389 kts 236°
2026-04-25 08:04 44.12553 7.95918 19120 ft 390 kts 236°
2026-04-25 08:04 44.11009 7.92827 19122 ft 390 kts 236°
2026-04-25 08:05 44.09459 7.89727 19119 ft 390 kts 236°
2026-04-25 08:05 44.07909 7.86634 19119 ft 390 kts 236°
2026-04-25 08:05 44.06354 7.83535 19114 ft 390 kts 236°
2026-04-25 08:05 44.04800 7.80441 19112 ft 391 kts 236°
2026-04-25 08:06 44.03245 7.77351 19105 ft 391 kts 236°
2026-04-25 08:06 44.01685 7.74253 19108 ft 391 kts 236°
2026-04-25 08:06 43.99938 7.71363 19101 ft 392 kts 223°
2026-04-25 08:06 43.97701 7.69211 18914 ft 394 kts 207°
2026-04-25 08:07 43.95115 7.67972 18516 ft 394 kts 193°
2026-04-25 08:07 43.92445 7.67205 17978 ft 391 kts 192°
2026-04-25 08:07 43.89802 7.66456 17426 ft 384 kts 192°
2026-04-25 08:07 43.87199 7.65718 16887 ft 380 kts 192°
2026-04-25 08:08 43.84616 7.64983 16354 ft 378 kts 192°
2026-04-25 08:08 43.82045 7.64252 15826 ft 375 kts 192°
2026-04-25 08:08 43.79500 7.63526 15321 ft 371 kts 192°
2026-04-25 08:08 43.76978 7.62805 14806 ft 368 kts 192°
2026-04-25 08:09 43.74486 7.62090 14315 ft 365 kts 192°
2026-04-25 08:09 43.72008 7.61377 13814 ft 362 kts 192°
2026-04-25 08:09 43.69550 7.60669 13265 ft 360 kts 192°
2026-04-25 08:09 43.67175 7.59989 12724 ft 357 kts 192°
2026-04-25 08:10 43.64684 7.59280 12190 ft 355 kts 192°
2026-04-25 08:10 43.62280 7.58598 11661 ft 348 kts 192°
2026-04-25 08:10 43.59975 7.57945 11257 ft 326 kts 192°
2026-04-25 08:10 43.57820 7.57335 10880 ft 306 kts 192°
2026-04-25 08:11 43.55803 7.56764 10523 ft 289 kts 192°
2026-04-25 08:11 43.53802 7.56198 10064 ft 297 kts 193°
2026-04-25 08:11 43.51783 7.55626 9552 ft 294 kts 193°
2026-04-25 08:11 43.49823 7.55075 9041 ft 288 kts 192°
2026-04-25 08:12 43.47874 7.54531 8529 ft 286 kts 193°
2026-04-25 08:12 43.45930 7.53988 8035 ft 282 kts 194°
2026-04-25 08:12 43.44702 7.53350 7706 ft 278 kts 211°
2026-04-25 08:12 43.43289 7.51587 7207 ft 272 kts 237°
2026-04-25 08:13 43.42413 7.49368 6730 ft 257 kts 244°
2026-04-25 08:13 43.41368 7.46545 6080 ft 245 kts 244°
2026-04-25 08:13 43.40846 7.45130 5741 ft 246 kts 244°
2026-04-25 08:14 43.39320 7.41018 4775 ft 238 kts 244°
2026-04-25 08:14 43.38563 7.38986 4394 ft 240 kts 243°
2026-04-25 08:14 43.37815 7.36965 4019 ft 234 kts 244°
2026-04-25 08:14 43.37083 7.34986 3656 ft 236 kts 243°
2026-04-25 08:15 43.36351 7.32988 3290 ft 232 kts 243°
2026-04-25 08:15 43.35639 7.31015 3147 ft 234 kts 248°
2026-04-25 08:15 43.35423 7.28797 3048 ft 233 kts 276°
2026-04-25 08:15 43.35997 7.26772 3002 ft 234 kts 305°
2026-04-25 08:16 43.37217 7.25296 2989 ft 231 kts 327°
2026-04-25 08:16 43.38569 7.24275 2997 ft 213 kts 331°
2026-04-25 08:16 43.39831 7.23340 3001 ft 205 kts 328°
2026-04-25 08:16 43.41061 7.22278 3000 ft 207 kts 324°
2026-04-25 08:17 43.42177 7.21152 2994 ft 191 kts 320°
2026-04-25 08:17 43.43167 7.20047 3019 ft 175 kts 318°
2026-04-25 08:17 43.44053 7.19022 3020 ft 155 kts 317°
2026-04-25 08:17 43.44834 7.18092 3021 ft 149 kts 316°
2026-04-25 08:18 43.45609 7.17161 3002 ft 142 kts 317°
2026-04-25 08:18 43.46443 7.16362 2987 ft 148 kts 335°
2026-04-25 08:18 43.47461 7.16125 2988 ft 151 kts 355°
2026-04-25 08:18 43.48488 7.16074 3014 ft 150 kts 357°
2026-04-25 08:19 43.49526 7.16031 2992 ft 147 kts 356°
2026-04-25 08:19 43.50560 7.15968 3006 ft 150 kts 355°
2026-04-25 08:19 43.51592 7.15885 2996 ft 149 kts 354°
2026-04-25 08:19 43.52628 7.15793 2874 ft 149 kts 354°
2026-04-25 08:20 43.53651 7.15711 2602 ft 148 kts 356°
2026-04-25 08:20 43.54684 7.15628 2263 ft 150 kts 356°
2026-04-25 08:20 43.55720 7.15557 1889 ft 147 kts 357°
2026-04-25 08:20 43.56734 7.15501 1524 ft 144 kts 358°
2026-04-25 08:21 43.57726 7.15454 1258 ft 141 kts 358°
2026-04-25 08:21 43.58728 7.15406 1105 ft 143 kts 358°
2026-04-25 08:21 43.59717 7.15371 943 ft 143 kts 359°
2026-04-25 08:21 43.60682 7.15503 728 ft 139 kts 15°
2026-04-25 08:22 43.61588 7.16065 644 ft 145 kts 27°
2026-04-25 08:22 43.62425 7.16779 582 ft 143 kts 36°
2026-04-25 08:22 43.63185 7.17669 514 ft 142 kts 42°
2026-04-25 08:22 43.63889 7.18622 406 ft 143 kts 43°
2026-04-25 08:23 43.64589 7.19581 243 ft 142 kts 46°
2026-04-25 08:23 43.65283 7.20551 67 ft 142 kts 45°
2026-04-25 08:23 43.66014 7.21543 214 ft 157 kts 45°
2026-04-25 08:23 43.66779 7.22614 1108 ft 158 kts 46°
2026-04-25 08:24 43.67544 7.23745 2072 ft 162 kts 49°
2026-04-25 08:24 43.68221 7.24972 2841 ft 171 kts 63°
2026-04-25 08:24 43.68406 7.26784 3014 ft 210 kts 98°
2026-04-25 08:24 43.67791 7.28624 3019 ft 216 kts 131°
2026-04-25 08:25 43.66766 7.30150 3011 ft 217 kts 134°
2026-04-25 08:25 43.65726 7.31656 2992 ft 217 kts 134°
2026-04-25 08:25 43.64682 7.33168 2989 ft 218 kts 134°
2026-04-25 08:25 43.63635 7.34683 2999 ft 218 kts 134°
2026-04-25 08:26 43.62589 7.36197 3013 ft 218 kts 134°
2026-04-25 08:26 43.61541 7.37715 3010 ft 219 kts 134°
2026-04-25 08:26 43.60501 7.39226 2990 ft 220 kts 134°
2026-04-25 08:26 43.59447 7.40760 3014 ft 221 kts 134°
2026-04-25 08:27 43.58371 7.42263 2986 ft 219 kts 142°
2026-04-25 08:27 43.56995 7.43114 2995 ft 219 kts 173°
2026-04-25 08:27 43.55487 7.43129 3002 ft 216 kts 184°
2026-04-25 08:27 43.53996 7.43041 2999 ft 214 kts 184°
2026-04-25 08:28 43.52506 7.42951 2997 ft 214 kts 184°
2026-04-25 08:28 43.51021 7.42863 3008 ft 214 kts 184°
2026-04-25 08:28 43.49528 7.42771 2999 ft 214 kts 184°
2026-04-25 08:28 43.48040 7.42680 2997 ft 213 kts 184°
2026-04-25 08:29 43.46557 7.42592 3002 ft 215 kts 183°
2026-04-25 08:29 43.45069 7.42506 3000 ft 213 kts 183°
2026-04-25 08:29 43.43583 7.42423 3000 ft 214 kts 183°
2026-04-25 08:29 43.42094 7.42342 2996 ft 214 kts 183°
2026-04-25 08:30 43.40615 7.42216 2991 ft 212 kts 192°
2026-04-25 08:30 43.39300 7.41372 2994 ft 209 kts 222°
2026-04-25 08:30 43.38507 7.39736 3024 ft 207 kts 252°
2026-04-25 08:30 43.38080 7.37829 2997 ft 208 kts 254°
2026-04-25 08:31 43.37671 7.35923 3001 ft 208 kts 253°
2026-04-25 08:31 43.37262 7.34020 2994 ft 208 kts 253°
2026-04-25 08:31 43.36855 7.32113 3012 ft 207 kts 253°
2026-04-25 08:31 43.36470 7.30205 2989 ft 206 kts 259°
2026-04-25 08:32 43.36591 7.28343 2996 ft 190 kts 292°
2026-04-25 08:32 43.37385 7.27003 3024 ft 178 kts 320°
2026-04-25 08:32 43.38381 7.25929 3014 ft 181 kts 320°
2026-04-25 08:32 43.39356 7.24855 3015 ft 179 kts 318°
2026-04-25 08:33 43.40312 7.23742 3013 ft 180 kts 317°
2026-04-25 08:33 43.41249 7.22604 2995 ft 180 kts 316°
2026-04-25 08:33 43.42180 7.21454 2990 ft 180 kts 316°
2026-04-25 08:33 43.43073 7.20347 2987 ft 166 kts 315°
2026-04-25 08:34 43.43893 7.19320 3004 ft 160 kts 315°
2026-04-25 08:34 43.44721 7.18283 2989 ft 156 kts 315°
2026-04-25 08:34 43.45511 7.17296 2985 ft 151 kts 315°
2026-04-25 08:34 43.46296 7.16434 3014 ft 149 kts 328°
2026-04-25 08:35 43.47301 7.16097 3016 ft 146 kts 355°
2026-04-25 08:35 43.48338 7.16050 3017 ft 150 kts 357°
2026-04-25 08:35 43.49365 7.16017 3016 ft 147 kts 356°
2026-04-25 08:35 43.50410 7.15965 2985 ft 148 kts 356°
2026-04-25 08:36 43.51440 7.15910 2974 ft 149 kts 355°
2026-04-25 08:36 43.52476 7.15855 2818 ft 147 kts 356°
2026-04-25 08:36 43.53504 7.15798 2656 ft 149 kts 356°
2026-04-25 08:36 43.54528 7.15733 2464 ft 149 kts 356°
2026-04-25 08:37 43.55537 7.15651 2283 ft 145 kts 355°
2026-04-25 08:37 43.56593 7.15547 1991 ft 152 kts 355°
2026-04-25 08:37 43.57604 7.15431 1798 ft 146 kts 355°
2026-04-25 08:37 43.58627 7.15304 1624 ft 145 kts 354°
2026-04-25 08:38 43.59636 7.15290 1428 ft 148 kts
2026-04-25 08:38 43.60623 7.15605 1179 ft 144 kts 17°
2026-04-25 08:38 43.61546 7.16106 957 ft 145 kts 24°
2026-04-25 08:38 43.62408 7.16781 772 ft 139 kts 33°
2026-04-25 08:39 43.63188 7.17632 602 ft 145 kts 42°
2026-04-25 08:39 43.63873 7.18594 409 ft 142 kts 46°
2026-04-25 08:39 43.64579 7.19557 236 ft 139 kts 45°
2026-04-25 08:39 43.65263 7.20511 66 ft 145 kts 45°
2026-04-25 08:40 43.65948 7.21455 29 ft 116 kts 45°
2026-04-25 08:40 43.66298 7.21944 28 ft 28 kts 47°
2026-04-25 08:40 43.66317 7.21978 29 ft 0 kts 56°